Weather History for Rochelle, IL

Change the Weather History Date:

Tuesday, July 23, 2013

  Actual Average (KRFD) Record (KRFD)
Temperature  
Mean Temperature 67 °F 74 °F  
Max Temperature 77 °F 84 °F 104 °F (1934)
Min Temperature 58 °F 63 °F 47 °F (1947)
Degree Days  
Heating Degree Days 0 0  
Month to date heating degree days 0  
Since 1 June heating degree days 31  
Since 1 July heating degree days 0  
Cooling Degree Days 2 9  
Month to date cooling degree days 207  
Year to date cooling degree days 437  
Since 1 June cooling degree days 382  
Growing Degree Days 17 (Base 50)    
Moisture  
Dew Point 58 °F    
Average Humidity 71    
Maximum Humidity 95    
Minimum Humidity 45    
Precipitation  
Precipitation 0.04 in 0.13 in 4.70 in (2010)
Month to date precipitation 2.88  
Year to date precipitation 20.00  
Snow  
Snow 0.00 in 0.00 in 0.00 in ()
Month to date snowfall 0.0  
Since 1 June snowfall 0.0  
Since 1 July snowfall 0.0  
Snow Depth -    
Sea Level Pressure  
Sea Level Pressure 29.86 in    
Wind  
Wind Speed 8 mph (North)    
Max Wind Speed 14 mph    
Max Gust Speed 21 mph    
Visibility 10 miles    
Events Rain    
T = Trace of Precipitation, MM = Missing Value Source: NWS Daily Summary

Daily Weather History Graph

Daily Weather History Graph

Search for Another Location

Airport:

Trip Planner

Search our weather history database for the weather conditions in past years. The results will help you decide how hot, cold, wet, or windy it might be!

Date:

Astronomy

Jul. 23, 2013 Rise Set
Actual Time 5:41 AM CDT 8:23 PM CDT
Civil Twilight 5:09 AM CDT 8:55 PM CDT
Nautical Twilight 4:28 AM CDT 9:36 PM CDT
Astronomical Twilight 3:42 AM CDT 10:22 PM CDT
Moon 8:49 PM CDT (7/23) 6:52 AM CDT (7/23)
Length of Visible Light 15h 46m
Length of Day
14h 41m
Full, 99% of the Moon is Illuminated
Jul 23
Full
Jul 29
Last Quarter
Aug 6
New
Aug 14
First Quarter
Aug 20
Full

Hourly Weather History & Observations

Time (CDT) Temp. Dew Point Humidity Pressure Visibility Wind Dir Wind Speed Gust Speed Precip Events Conditions
12:15 AM 65.8 °F 63.5 °F 92% 29.81 in 10.0 mi SE 10.4 mph - 0.02 in Rain Rain
12:35 AM 67.1 °F 62.2 °F 84% 29.76 in 10.0 mi SE 10.4 mph - 0.04 in Rain Light Rain
12:55 AM 66.6 °F 62.2 °F 86% 29.70 in 10.0 mi South 10.4 mph - 0.04 in   Scattered Clouds
1:15 AM 67.3 °F 63.0 °F 86% 29.77 in 10.0 mi NW 11.5 mph - N/A   Clear
1:35 AM 66.6 °F 62.6 °F 87% 29.78 in 10.0 mi NNW 8.1 mph - N/A   Clear
1:55 AM 66.2 °F 62.6 °F 88% 29.77 in 10.0 mi West 4.6 mph - N/A   Clear
2:15 AM 65.8 °F 62.8 °F 90% 29.75 in 10.0 mi Calm Calm - N/A   Clear
2:35 AM 64.4 °F 62.1 °F 92% 29.75 in 10.0 mi SSW 4.6 mph - N/A   Clear
2:55 AM 63.9 °F 61.9 °F 93% 29.74 in 10.0 mi Calm Calm - N/A   Clear
3:15 AM 63.0 °F 61.2 °F 94% 29.74 in 10.0 mi Calm Calm - N/A   Clear
3:35 AM 63.5 °F 61.0 °F 91% 29.75 in 10.0 mi Calm Calm - N/A   Clear
3:55 AM 63.0 °F 61.0 °F 93% 29.76 in 10.0 mi Calm Calm - N/A   Clear
4:15 AM 63.1 °F 61.3 °F 94% 29.76 in 10.0 mi WSW 3.5 mph - N/A   Clear
4:35 AM 62.8 °F 61.0 °F 94% 29.77 in 10.0 mi Calm Calm - N/A   Clear
4:55 AM 62.8 °F 61.2 °F 94% 29.78 in 10.0 mi Calm Calm - N/A   Clear
5:15 AM 63.1 °F 61.5 °F 94% 29.79 in 10.0 mi Calm Calm - N/A   Clear
5:35 AM 62.8 °F 61.2 °F 94% 29.79 in 7.0 mi Calm Calm - N/A   Clear
5:55 AM 63.0 °F 61.5 °F 95% 29.79 in 10.0 mi WNW 4.6 mph - N/A   Clear
6:15 AM 63.5 °F 61.2 °F 92% 29.80 in 10.0 mi West 3.5 mph - N/A   Clear
6:55 AM 64.6 °F 61.9 °F 91% 29.79 in 10.0 mi West 5.8 mph - N/A   Clear
7:15 AM 65.3 °F 62.4 °F 90% 29.79 in 10.0 mi West 5.8 mph - N/A   Clear
7:35 AM 66.2 °F 62.8 °F 89% 29.81 in 10.0 mi WNW 8.1 mph - N/A   Scattered Clouds
7:55 AM 67.1 °F 63.5 °F 88% 29.81 in 10.0 mi NNW 9.2 mph - N/A   Overcast
8:15 AM 67.5 °F 63.5 °F 87% 29.82 in 10.0 mi NNW 8.1 mph 16.1 mph N/A   Overcast
8:35 AM 68.5 °F 63.9 °F 85% 29.83 in 10.0 mi North 11.5 mph - N/A   Mostly Cloudy
8:55 AM 70.3 °F 63.3 °F 78% 29.83 in 10.0 mi North 10.4 mph - N/A   Mostly Cloudy
9:15 AM 70.7 °F 62.2 °F 75% 29.83 in 10.0 mi North 10.4 mph - N/A   Mostly Cloudy
9:35 AM 71.1 °F 61.9 °F 73% 29.84 in 10.0 mi North 9.2 mph - N/A   Overcast
9:55 AM 72.9 °F 61.7 °F 68% 29.84 in 10.0 mi North 9.2 mph - N/A   Mostly Cloudy
10:15 AM 73.0 °F 60.6 °F 65% 29.85 in 10.0 mi North 13.8 mph 18.4 mph N/A   Mostly Cloudy
10:35 AM 73.6 °F 61.7 °F 66% 29.87 in 10.0 mi North 12.7 mph - N/A   Scattered Clouds
10:55 AM 73.6 °F 60.8 °F 64% 29.87 in 10.0 mi North 9.2 mph - N/A   Scattered Clouds
11:15 AM 74.8 °F 61.7 °F 64% 29.87 in 10.0 mi North 12.7 mph - N/A   Scattered Clouds
11:35 AM 74.1 °F 62.4 °F 67% 29.87 in 10.0 mi NNW 11.5 mph - N/A   Mostly Cloudy
11:55 AM 74.3 °F 58.5 °F 58% 29.88 in 10.0 mi NNW 12.7 mph 18.4 mph N/A   Overcast
12:15 PM 73.8 °F 58.1 °F 58% 29.89 in 10.0 mi NNW 11.5 mph - N/A   Mostly Cloudy
12:35 PM 73.8 °F 57.6 °F 57% 29.89 in 10.0 mi North 10.4 mph 18.4 mph N/A   Scattered Clouds
12:55 PM 74.5 °F 57.6 °F 55% 29.90 in 10.0 mi NNW 8.1 mph - N/A   Scattered Clouds
1:15 PM 74.5 °F 57.2 °F 55% 29.89 in 10.0 mi NNW 10.4 mph - N/A   Mostly Cloudy
1:35 PM 74.1 °F 56.8 °F 55% 29.90 in 10.0 mi North 11.5 mph 17.3 mph N/A   Mostly Cloudy
1:55 PM 74.1 °F 56.1 °F 53% 29.90 in 10.0 mi North 9.2 mph 16.1 mph N/A   Mostly Cloudy
2:15 PM 74.3 °F 56.8 °F 54% 29.90 in 10.0 mi North 10.4 mph - N/A   Mostly Cloudy
2:35 PM 75.6 °F 55.9 °F 50% 29.90 in 10.0 mi North 10.4 mph 16.1 mph N/A   Scattered Clouds
3:15 PM 75.6 °F 54.5 °F 48% 29.91 in 10.0 mi North 11.5 mph 16.1 mph N/A   Scattered Clouds
3:35 PM 74.5 °F 54.0 °F 49% 29.89 in 10.0 mi North 11.5 mph 17.3 mph N/A   Scattered Clouds
3:55 PM 76.6 °F 54.0 °F 45% 29.89 in 10.0 mi North 13.8 mph 18.4 mph N/A   Scattered Clouds
4:15 PM 76.8 °F 54.3 °F 46% 29.89 in 10.0 mi North 12.7 mph 18.4 mph N/A   Scattered Clouds
4:35 PM 76.3 °F 54.3 °F 46% 29.88 in 10.0 mi North 12.7 mph 20.7 mph N/A   Scattered Clouds
4:55 PM 75.6 °F 54.0 °F 47% 29.89 in 10.0 mi North 13.8 mph 18.4 mph N/A   Scattered Clouds
5:15 PM 75.9 °F 54.3 °F 47% 29.89 in 10.0 mi North 12.7 mph - N/A   Clear
5:35 PM 75.4 °F 53.6 °F 47% 29.89 in 10.0 mi North 13.8 mph 20.7 mph N/A   Clear
5:55 PM 75.2 °F 53.1 °F 46% 29.89 in 10.0 mi North 13.8 mph - N/A   Clear
6:15 PM 74.7 °F 53.1 °F 47% 29.89 in 10.0 mi North 9.2 mph 17.3 mph N/A   Clear
6:35 PM 74.3 °F 52.9 °F 47% 29.89 in 10.0 mi North 13.8 mph 18.4 mph N/A   Clear
6:55 PM 73.6 °F 54.1 °F 50% 29.89 in 10.0 mi NNE 11.5 mph - N/A   Clear
7:15 PM 72.5 °F 54.0 °F 52% 29.89 in 10.0 mi NE 9.2 mph 17.3 mph N/A   Clear
7:35 PM 71.2 °F 52.7 °F 52% 29.90 in 10.0 mi NNE 9.2 mph - N/A   Clear
7:55 PM 69.8 °F 54.1 °F 57% 29.91 in 10.0 mi NNE 6.9 mph - N/A   Clear
8:15 PM 68.4 °F 54.5 °F 61% 29.92 in 10.0 mi NNE 9.2 mph - N/A   Clear
8:35 PM 67.1 °F 54.7 °F 64% 29.92 in 10.0 mi NNE 6.9 mph - N/A   Clear
8:55 PM 65.8 °F 55.4 °F 69% 29.94 in 10.0 mi NNE 6.9 mph - N/A   Clear
9:15 PM 65.7 °F 54.7 °F 68% 29.95 in 10.0 mi NNE 8.1 mph - N/A   Clear
9:35 PM 64.9 °F 54.0 °F 68% 29.97 in 10.0 mi NNE 9.2 mph - N/A   Clear
9:55 PM 64.2 °F 53.8 °F 69% 29.98 in 10.0 mi NNE 8.1 mph - N/A   Clear
10:15 PM 63.3 °F 53.6 °F 71% 29.99 in 10.0 mi NNE 6.9 mph - N/A   Clear
10:35 PM 62.4 °F 53.6 °F 73% 29.99 in 10.0 mi NE 5.8 mph - N/A   Clear
10:55 PM 59.9 °F 54.3 °F 82% 29.99 in 10.0 mi NE 5.8 mph - N/A   Clear
11:15 PM 59.0 °F 54.7 °F 86% 30.00 in 10.0 mi NE 4.6 mph - N/A   Clear
11:35 PM 58.8 °F 54.5 °F 86% 30.00 in 10.0 mi ENE 4.6 mph - N/A   Clear
11:55 PM 58.1 °F 54.5 °F 88% 30.00 in 10.0 mi ENE 5.8 mph - N/A   Clear